Preview of NWS' New Version of Forecast
This preview is not operational and should not be used for support decisions.

Regional Weather Roundup (RWR)

Issued by National Weather Service (NWS)

                            
000
ASUS45 KCYS 210310
RWRWY 

WYOMING REGIONAL WEATHER ROUNDUP
NATIONAL WEATHER SERVICE CHEYENNE WY
900 PM MDT TUE AUG 20 2019

NOTE:  "FAIR" INDICATES FEW OR NO CLOUDS BELOW 12,000 FEET
WITH NO SIGNIFICANT WEATHER AND/OR OBSTRUCTIONS TO VISIBILITY.

WYZ001-210400-
YELLOWSTONE NATIONAL PARK
  
CITY           SKY/WX    TMP DP  RH WIND       PRES   REMARKS
LK YELLOWSTONE   N/A     57  42  57 NW3       30.35R                  
W YELLOWSTONE  NOT AVBL                                               

$$
WYZ002>013-054>058-071-098>099-210400-
NORTHERN WYOMING
  
CITY           SKY/WX    TMP DP  RH WIND       PRES   REMARKS
JACKSON        FAIR      65  38  36 NE5       30.20R                  
CODY           FAIR      72  51  47 N8        30.17R                  
GREYBULL       FAIR      81  52  36 NW18      30.01S                  
WORLAND        FAIR      80  50  34 NE12G23   30.06R                  
SHERIDAN       FAIR      68  52  56 NW3       30.10R                  
BUFFALO        FAIR      74  55  51 S12G22    30.18R                  
GILLETTE       FAIR      74  54  49 S14       30.16R                  
HULETT         FAIR      68  54  60 E7        30.17                   
NEWCASTLE      FAIR      72  46  40 SE12      30.16                   

$$
WYZ014>020-022>026-101>103-210400-
CENTRAL WYOMING
  
CITY           SKY/WX    TMP DP  RH WIND       PRES   REMARKS
BIG PINEY      FAIR      64  22  20 N12       30.24R                  
PINEDALE       FAIR      66  27  22 CALM      30.25                   
DUBOIS         FAIR      68  28  22 CALM      30.27                   
LANDER         FAIR      77  32  19 W12       30.12R                  
RIVERTON       FAIR      80  29  15 N9        30.10R                  
CASPER         LGT RAIN  72  52  49 E23G37    30.14R                  
DOUGLAS        FAIR      69  54  58 S21       30.20R                  

$$
WYZ021-027>030-104>119-210400-
SOUTHERN WYOMING
  
CITY           SKY/WX    TMP DP  RH WIND       PRES   REMARKS
EVANSTON       FAIR      71  17  12 W8        30.26R                  
KEMMERER       FAIR      70  25  18 W9        30.26                   
ROCK SPRINGS   FAIR      77  24  14 SW9       30.20R                  
DIXON          FAIR      61  22  22 E18       30.23R                  
RAWLINS        FAIR      68  22  17 W5        30.21R                  
SARATOGA       FAIR      70  28  21 SW9       30.23S                  
LARAMIE        FAIR      70  42  36 SE17      30.31R                  
CHEYENNE       FAIR      73  57  57 VRB7      30.24R                  
TORRINGTON     MOCLDY    74  60  61 N15       30.17R                  
PINE BLUFFS    FAIR      73  61  64 E13G21    30.17R                  

$$
  

000
ASUS45 KCYS 210310
RWRWY 

WYOMING REGIONAL WEATHER ROUNDUP
NATIONAL WEATHER SERVICE CHEYENNE WY
900 PM MDT TUE AUG 20 2019

NOTE:  "FAIR" INDICATES FEW OR NO CLOUDS BELOW 12,000 FEET
WITH NO SIGNIFICANT WEATHER AND/OR OBSTRUCTIONS TO VISIBILITY.

WYZ001-210400-
...YELLOWSTONE NATIONAL PARK...
  
CITY           SKY/WX    TMP DP  RH WIND       PRES   REMARKS
LK YELLOWSTONE   N/A     57  42  57 NW3       30.35R                  
W YELLOWSTONE  NOT AVBL                                               

$$
WYZ002>013-054>058-071-098>099-210400-
...NORTHERN WYOMING...
  
CITY           SKY/WX    TMP DP  RH WIND       PRES   REMARKS
JACKSON        MOCLDY    65  38  36 NE5       30.20R                  
CODY           MOCLDY    72  51  47 N8        30.17R                  
GREYBULL       MOCLDY    81  52  36 NW18      30.01S                  
WORLAND        PTCLDY    80  50  34 NE12G23   30.06R                  
SHERIDAN       PTCLDY    68  52  56 NW3       30.10R                  
BUFFALO        CLOUDY    74  55  51 S12G22    30.18R                  
GILLETTE       MOCLDY    74  54  49 S14       30.16R                  
HULETT         FAIR      68  54  60 E7        30.17R                  
NEWCASTLE      FAIR      72  46  40 SE12      30.16R                  

$$
WYZ014>020-022>026-101>103-210400-
...CENTRAL WYOMING...
  
CITY           SKY/WX    TMP DP  RH WIND       PRES   REMARKS
BIG PINEY      PTCLDY    64  22  20 N12       30.24R                  
PINEDALE       PTCLDY    66  27  22 CALM      30.25S                  
DUBOIS         FAIR      68  28  22 CALM      30.27R                  
LANDER         PTCLDY    77  32  19 W12       30.12R                  
RIVERTON       PTCLDY    80  29  15 N9        30.10R                  
CASPER         LGT RAIN  72  52  49 E23G37    30.14R                  
DOUGLAS        CLOUDY    69  54  58 S21       30.20R                  

$$
WYZ021-027>030-104>119-210400-
...SOUTHERN WYOMING...
  
CITY           SKY/WX    TMP DP  RH WIND       PRES   REMARKS
EVANSTON       PTCLDY    71  17  12 W8        30.26R                  
KEMMERER       PTCLDY    70  25  18 W9        30.26S                  
FORT BRIDGER   NOT AVBL                                               
ROCK SPRINGS   PTCLDY    77  24  14 SW9       30.20R                  
DIXON          FAIR      61  22  22 E18       30.23R                  
RAWLINS        CLEAR     68  22  17 W5        30.21R                  
SARATOGA       FAIR      70  28  21 SW9       30.23S                  
LARAMIE        PTCLDY    70  42  36 SE17      30.31R                  
CHEYENNE       CLOUDY    73  57  57 VRB7      30.24R                  
TORRINGTON     MOCLDY    74  60  61 N15       30.17R                  
PINE BLUFFS    FAIR      73  61  64 E13G21    30.17R                  

$$